Location: Fontbon
(47.0421°N, 1.7890°E)
Time: 00:34:23
(UTC+00:00)

Cosmos 2026 Rocket - Pass Details

Date: 20 July 2025
Orbit: 938 x 999 km, 82.9° (Epoch: 16 December)

Event Time Altitude Azimuth Distance (km) Brightness Sun altitude
Exits shadow 21:38:56 14° 185° (S) 2,371 5.6 -15.4°
Maximum altitude 21:44:14 87° 99° (E) 947 3.9 -15.9°
Drops below altitude 10° 21:50:20 10° 9° (N) 2,663 7.0 -16.5°
Sets 21:52:49 0° 10° (N) 3,614 7.8 -16.7°
